map of BAX home
Great Circle Mapper logo
BAX - Airport
Location
City:  Barnaul, Altay, Russian Federation (Russia)
ICAO / IATA:UNBB / BAX

Details
Type:Airport (Aerodrome, Airfield)
Use:Public/Civil
Latitude:5321'50"N (53.363775)
Longitude:8332'19"E (83.538533)
Datum:WGS 1984
Elevation:838 ft (255 m)
Variation:7.59E (WMM2015 magnetic declination)
0.01 annual change
Runways:1
Longest:9350 × 164 ft (2850 × 50 m), paved

Time
Time Zone:UTC+6 (DST+7)

Weather
METAR:UNBB 041800Z 30003MPS CAVOK M11/M13 Q1026 NOSIG RMK QFE747/0996 24CLRD60
TAF:UNBB 041700Z 0418/0518 24005MPS 9999 SCT020 BKN070
TEMPO 0418/0506 VRB02MPS 0300 FZFG FU SCT002 BKN005
TEMPO 0512/0518 VRB02MPS 1200 BR FU SCT002 BKN005

Related Locations
Nearby:
Farthest:PNT: 11426 mi / 18388 km
Puerto Natales [Teniente Julio Gallardo], MA, CL

Find:

   beyond  
but within

Other Information
Maps:
NOTAMs:
Links:
Sources:

  
flag of Russian Federation (Russia)   

Sectional Chart

Flight Planning
at skyvector.com

Satellite Image

Google Maps Satellite View

 

Copyright © 2004-2015 Karl L. Swartz. All rights reserved.
The Great Circle Mapper name and logo are trademarks of the Great Circle Mapper.
All other trademarks mentioned herein belong to their respective owners.
Please see credits for attibutions and further copyright information.

  Follow gcmap on Facebook Follow gcmap on Twitter Follow gcmap on Google+

hCard Microformat

Geo Microformat